Theta_e
283 283 283 283 283 283 282 283 283 283 283 282 282 282 282 283 283 283 283 283 283 282 283 283 283 284 284 285 285 286 286 286 287 287 288 288 289 290 290 290 290 290 290 290 290 290 290 290 290 290 291 291 292 292 292 292 293 293 294 294 295 296 296 297 297 297 297 297 297
282 283 283 283 283 283 282 282 283 283 283 282 282 283 283 283 283 283 283 283 283 283 283 283 283 284 284 285 285 285 286 286 287 287 287 288 289 290 290 289 289 289 290 290 290 290 289 289 289 290 290 291 291 292 292 292 292 293 293 293 293 295 295 296 297 298 298 298 298
282 282 282 282 282 282 282 282 282 282 282 282 282 283 283 283 283 283 282 283 283 283 283 283 283 283 284 284 285 285 285 286 286 287 287 288 289 290 290 289 289 289 289 290 289 289 289 289 289 289 290 290 291 291 292 292 292 293 292 292 293 293 294 295 297 298 298 299 299
282 282 282 282 282 281 281 281 281 281 282 282 282 283 283 283 283 283 282 283 283 283 283 283 283 283 284 284 284 284 285 286 286 286 287 287 288 289 289 289 289 289 289 289 289 289 289 289 289 289 290 290 291 291 291 291 292 292 292 292 292 293 293 294 296 297 298 299 300
281 281 281 281 281 281 281 281 281 281 281 282 282 282 282 282 282 282 282 282 282 282 283 283 283 283 283 283 283 284 285 285 286 286 286 286 287 288 288 289 289 289 289 289 289 289 289 288 288 288 289 290 290 291 291 291 291 291 291 292 292 293 293 293 295 296 297 298 300
280 280 281 281 281 281 281 281 281 281 281 281 281 281 281 281 281 281 281 281 281 282 282 283 283 283 283 283 283 283 284 285 285 286 286 286 286 287 287 287 288 288 288 289 288 288 288 288 288 288 289 289 291 291 291 291 291 291 291 291 292 292 293 293 293 294 294 295 296
280 280 280 280 280 280 280 280 280 280 280 281 281 281 281 281 281 281 281 281 281 282 282 282 282 283 283 283 282 283 283 284 284 285 285 285 285 286 286 287 287 288 288 288 288 288 288 288 287 288 288 289 289 290 291 291 290 290 290 291 291 292 292 293 293 293 293 293 293
279 279 280 280 280 280 279 279 279 280 280 280 280 280 280 280 280 280 281 281 281 281 281 282 282 282 282 282 282 282 282 283 283 284 284 284 285 285 285 286 287 287 287 287 287 287 287 287 288 288 288 288 288 289 289 290 290 290 290 291 291 292 292 292 293 293 292 292 292
279 279 279 279 279 279 279 279 279 279 279 279 279 279 279 280 280 280 280 280 281 281 281 281 281 281 282 281 282 282 282 282 282 283 283 284 284 284 285 286 286 286 286 287 287 287 287 287 287 288 288 288 288 288 289 290 290 290 290 290 291 291 292 292 292 292 292 292 292
278 278 278 278 278 278 278 278 278 278 278 278 279 279 279 280 280 280 280 280 281 281 281 281 281 281 281 281 281 281 281 281 282 282 283 283 284 284 284 285 285 285 285 286 286 286 286 286 287 287 288 288 288 288 288 290 289 289 289 290 291 291 292 292 292 292 292 291 291
277 278 278 277 277 278 278 278 278 278 278 278 279 279 279 279 279 279 280 280 280 280 280 280 280 280 280 280 281 281 281 281 281 282 282 282 283 283 284 284 284 284 285 285 285 286 286 286 286 287 287 287 288 288 288 289 289 289 289 289 290 291 291 291 291 291 291 291 291
277 277 277 277 277 277 277 277 277 277 278 278 278 278 278 278 279 279 280 280 280 280 280 280 280 280 280 280 280 280 281 281 281 281 282 282 283 283 283 284 284 284 284 285 285 285 285 285 286 286 287 287 287 288 288 289 289 288 288 289 289 290 291 291 291 291 291 291 291
277 277 277 277 277 277 277 277 277 277 277 277 278 278 278 278 279 279 280 279 279 279 279 280 280 280 279 279 280 280 280 280 281 281 281 282 282 282 283 283 283 284 284 284 285 285 285 285 286 286 286 286 287 288 288 289 288 288 288 288 288 289 290 290 291 291 291 291 291
276 276 276 276 276 276 276 276 276 277 277 277 277 277 278 278 278 279 279 279 279 279 279 279 279 279 279 279 280 280 280 280 280 281 281 282 282 282 282 282 283 283 284 284 285 285 285 285 286 286 286 286 287 287 288 288 288 288 288 287 288 288 289 289 290 290 291 290 290
276 276 276 276 276 276 276 276 276 276 277 277 277 277 277 277 278 279 279 279 279 279 279 279 279 279 279 279 279 280 280 280 280 281 281 281 281 281 282 282 283 283 284 284 285 285 285 285 286 286 285 286 286 287 288 288 288 288 288 288 288 288 288 289 289 290 290 290 290
275 276 276 276 276 276 276 276 276 276 276 276 277 277 277 277 278 279 279 279 279 279 279 278 278 278 279 279 279 280 280 280 280 280 281 281 281 281 281 282 283 283 284 284 284 285 285 285 285 286 285 286 287 288 288 288 288 288 288 288 288 287 288 288 289 289 289 290 289
275 275 276 276 275 275 276 276 276 276 276 276 276 277 277 277 278 278 279 279 279 278 278 278 278 278 278 279 279 280 280 280 280 280 280 281 281 281 281 282 282 283 284 284 284 284 284 285 285 285 286 287 288 288 288 288 288 288 288 288 288 287 287 288 288 288 289 289 289
275 275 275 275 275 276 276 276 276 276 276 276 276 277 277 277 278 278 279 279 278 278 278 278 278 278 278 278 279 279 280 280 280 280 280 281 281 281 282 282 283 283 284 283 283 283 283 284 285 285 286 288 289 289 288 288 288 287 287 287 287 287 287 288 288 288 288 289 289
275 275 275 275 275 276 276 276 276 276 276 276 277 277 277 278 278 278 278 278 278 278 278 278 278 278 278 278 279 279 280 280 280 280 280 281 281 281 282 282 283 283 283 283 283 283 283 284 284 285 286 289 289 289 288 288 287 287 287 287 287 287 287 287 288 288 288 288 289
274 275 275 275 275 276 276 276 276 276 277 277 277 277 277 278 278 278 278 278 278 278 278 278 277 278 278 278 279 279 280 280 280 280 280 281 281 281 282 282 283 283 283 283 283 283 283 283 284 285 287 289 289 288 288 287 287 287 287 287 287 287 287 287 287 288 288 288 289
274 275 275 275 276 276 276 276 277 277 277 277 277 277 278 278 278 278 278 278 278 278 278 278 278 278 278 278 279 279 280 280 280 280 280 281 281 281 282 282 282 282 283 283 283 283 283 283 284 286 288 289 288 287 287 286 286 286 286 286 286 286 286 287 287 287 288 288 288
274 275 275 275 276 276 276 277 277 277 277 277 277 278 278 278 278 278 278 278 278 278 278 278 278 278 278 278 279 279 279 280 280 280 281 281 281 282 282 282 282 282 282 282 282 282 283 283 285 287 289 288 287 287 286 286 286 286 286 286 286 286 286 286 287 287 287 288 288
275 275 275 276 276 276 277 277 277 277 277 277 277 278 278 278 278 278 278 278 278 278 278 278 278 278 278 279 279 279 279 280 280 280 281 281 281 282 282 282 282 282 282 282 282 283 283 284 285 287 288 288 287 286 286 286 286 286 285 285 285 285 286 286 286 286 287 287 288
275 275 275 276 276 276 276 277 277 277 277 277 277 278 278 278 278 278 278 278 278 278 278 278 278 278 279 279 279 279 279 279 280 280 281 281 281 282 282 282 282 282 282 282 283 284 285 285 286 287 288 288 287 287 286 286 286 285 285 285 285 285 285 286 285 286 286 287 287
275 275 275 276 276 276 276 276 276 276 277 277 277 277 278 277 277 277 277 277 278 278 278 278 278 279 279 279 279 279 279 279 280 280 280 281 282 282 282 282 282 281 282 282 285 287 289 289 289 288 288 288 287 287 287 287 286 285 285 285 285 285 285 285 285 286 286 286 287
275 275 275 275 275 275 275 275 276 276 276 277 277 277 277 277 277 277 277 277 277 278 278 278 278 279 279 279 279 279 279 279 280 280 280 281 281 281 282 281 281 281 282 284 287 288 290 292 292 291 289 288 287 287 287 287 286 286 285 285 285 284 284 284 285 285 286 286 287
274 274 274 275 275 274 275 275 276 276 276 276 277 277 277 277 277 277 277 277 277 277 278 278 278 279 279 278 278 278 279 279 279 280 281 281 281 281 281 281 281 281 283 285 287 289 290 292 292 291 290 288 288 287 287 287 286 286 286 285 285 284 284 284 285 285 286 286 287
274 274 274 274 274 274 274 275 275 276 276 276 276 277 277 277 277 276 276 276 277 277 278 278 278 278 278 278 278 278 278 279 279 280 280 280 280 280 281 281 281 282 283 286 288 290 291 292 292 291 289 288 288 288 287 287 286 286 286 285 284 284 284 285 285 285 286 286 287
273 273 273 273 273 273 274 274 275 275 276 276 276 277 277 277 277 276 276 276 276 276 277 277 278 278 277 278 278 278 279 279 279 279 279 280 280 280 280 281 280 282 284 286 288 290 291 292 292 290 289 288 288 287 287 286 286 285 285 284 284 284 285 285 285 285 286 286 287
273 273 273 273 273 273 274 274 275 275 276 276 276 276 276 276 276 276 275 275 275 276 277 277 277 277 277 277 278 278 278 279 279 279 279 279 279 280 280 281 280 281 283 286 288 290 291 292 291 290 289 288 288 287 287 286 285 285 285 284 284 285 285 285 285 285 286 287 287
273 273 273 273 273 273 274 274 275 275 276 276 276 276 276 276 276 276 275 275 275 276 277 277 277 277 277 277 278 278 278 278 279 279 279 279 280 280 280 281 281 281 283 286 288 290 291 292 290 290 289 288 287 287 286 286 285 285 284 284 284 285 285 285 285 285 286 287 287
273 273 273 273 273 273 274 274 275 275 276 276 276 276 276 276 276 276 276 276 276 276 276 276 276 276 277 277 277 278 278 278 279 279 279 279 280 280 280 281 280 281 283 286 288 289 291 291 291 290 289 288 287 287 286 285 285 284 284 284 284 285 285 285 285 285 285 287 287
273 273 273 273 273 273 274 275 275 275 275 276 276 276 276 276 276 276 276 276 276 276 276 276 276 276 276 276 277 277 278 278 279 279 279 280 280 280 280 280 281 282 284 286 288 289 291 291 291 290 289 288 287 286 286 285 284 284 284 284 285 285 285 285 285 285 285 287 287
273 273 273 273 273 274 274 275 275 275 275 275 275 276 276 276 276 276 276 276 276 275 275 275 276 276 276 277 277 277 278 278 279 279 279 279 279 279 280 280 280 282 284 286 288 289 290 290 291 290 289 288 287 286 286 285 284 283 283 284 284 285 285 285 285 285 285 287 288
274 274 273 273 274 274 274 274 275 275 275 275 275 275 276 276 276 276 276 276 276 276 275 275 276 276 276 277 277 277 278 278 278 278 279 279 279 279 279 279 280 282 284 285 287 288 289 290 290 290 289 287 286 286 285 284 283 283 283 283 284 284 284 285 285 285 286 287 288
274 274 274 274 274 274 274 274 275 275 275 275 275 275 276 276 276 276 276 277 276 275 275 275 275 276 276 276 277 277 278 278 278 278 278 278 279 279 279 279 280 281 283 285 286 288 289 289 290 290 289 287 286 285 285 284 283 283 283 283 283 284 284 285 285 285 286 287 287
274 274 274 274 274 274 274 274 274 274 274 274 275 275 275 276 276 276 276 277 276 275 275 275 275 275 275 276 276 277 277 278 278 278 278 278 278 278 279 279 279 281 282 284 286 287 288 288 289 289 288 286 285 285 285 284 283 283 282 283 283 284 284 285 285 285 286 286 287
275 274 274 274 274 274 274 274 274 274 274 274 275 275 275 275 275 276 276 276 276 275 275 275 275 275 275 276 276 277 277 278 278 278 278 277 278 278 279 278 279 280 281 283 285 286 287 287 288 288 288 285 285 284 284 284 283 282 282 282 283 284 284 285 285 286 286 286 288
275 275 275 274 274 274 274 274 274 274 274 274 275 275 275 275 275 275 276 276 276 275 275 275 275 275 275 276 276 276 277 278 278 278 278 277 278 279 279 278 279 280 281 283 284 286 286 287 287 287 287 285 284 284 284 284 283 282 282 282 283 283 284 285 285 286 286 287 289
275 275 275 275 274 274 274 274 274 274 274 274 274 274 274 274 275 275 276 276 276 276 275 275 275 275 275 276 276 276 277 277 278 278 278 278 278 279 279 278 279 279 281 282 284 285 286 286 286 287 287 285 284 284 284 284 283 282 282 282 282 283 284 284 285 285 286 286 287
275 275 275 275 275 275 274 274 274 274 274 274 274 274 274 275 275 275 275 275 275 275 275 275 275 275 276 276 276 276 276 277 277 278 278 278 278 279 279 278 278 279 280 281 283 284 285 286 286 286 286 285 284 284 284 284 282 281 281 281 282 282 283 284 284 285 285 286 286
Wind_Speed
12 11 10 10 9 9 9 8 9 9 9 9 10 10 10 10 10 10 9 10 9 10 10 10 10 11 13 16 18 18 18 18 19 19 20 20 19 18 17 16 16 16 17 17 17 15 14 14 13 11 10 9 10 10 11 10 11 12 12 13 12 13 13 14 14 15 16 16 14
13 12 11 11 10 9 9 9 9 9 10 10 10 10 10 10 10 10 10 10 10 10 10 10 11 13 15 18 17 17 17 18 19 19 19 20 19 18 18 16 17 17 17 17 17 14 13 14 13 11 10 9 10 10 10 11 11 12 13 14 13 12 12 13 13 14 15 16 14
13 13 12 12 12 11 10 9 10 11 12 11 10 10 10 10 10 10 10 11 12 12 11 11 12 14 16 18 17 17 17 17 19 19 18 18 18 18 18 17 17 18 17 17 16 15 14 14 13 11 10 9 10 10 11 11 12 12 12 13 11 10 10 10 12 12 12 11 12
14 14 13 13 15 15 13 11 12 13 13 11 11 11 10 10 10 10 11 12 13 13 12 12 13 14 15 16 18 18 18 19 19 19 18 17 18 19 19 18 18 18 17 17 16 16 16 16 12 10 10 11 12 11 10 10 11 11 11 10 10 10 10 10 10 10 10 10 11
14 14 13 13 15 15 14 13 14 14 13 11 11 10 10 10 10 11 11 12 12 13 14 16 14 14 15 16 19 20 20 20 19 18 17 17 18 19 19 19 18 17 17 16 17 17 17 17 12 10 10 11 10 10 10 11 12 11 10 9 9 9 9 9 9 10 10 11 11
14 14 14 14 15 15 14 13 15 15 14 12 12 12 12 11 11 12 13 13 13 15 16 17 16 15 16 18 19 19 19 19 18 17 17 18 18 19 19 20 19 18 16 16 17 18 18 16 11 10 10 10 10 11 12 13 12 12 11 10 9 9 9 9 9 9 10 12 14
15 15 15 15 16 15 14 15 15 15 14 12 14 15 15 14 15 16 16 15 14 14 15 14 15 16 17 18 18 18 18 18 18 18 18 18 18 19 20 20 19 18 17 17 17 17 17 15 11 10 10 10 9 11 13 13 12 12 12 12 10 9 9 10 9 9 10 13 16
14 15 15 15 15 15 16 16 15 14 13 12 13 15 17 17 18 18 17 15 14 14 14 13 16 18 19 19 19 19 19 19 19 19 18 18 19 20 20 20 19 19 18 17 17 17 17 14 11 10 10 9 9 10 13 15 15 15 14 14 11 10 9 9 9 10 11 14 16
13 14 15 15 15 15 16 16 16 15 14 14 15 16 17 18 18 18 16 14 14 14 14 14 17 19 20 20 19 19 18 18 18 19 19 19 20 20 20 19 19 18 18 17 18 18 18 14 11 10 10 10 10 12 14 16 16 16 15 13 12 12 12 11 11 12 12 13 15
14 14 14 14 15 15 16 16 15 15 15 15 16 17 17 17 17 16 15 13 14 15 16 15 17 18 19 19 19 18 17 17 17 18 19 19 20 20 20 18 19 18 18 17 17 17 17 13 12 12 13 12 14 15 16 16 16 16 15 12 12 14 15 14 14 13 13 12 14
15 15 14 14 15 15 16 15 14 14 14 14 16 16 17 16 16 16 15 15 15 16 17 17 17 18 18 17 17 17 17 16 17 17 18 19 19 19 19 19 19 19 19 18 17 15 14 13 14 15 16 16 16 15 16 16 16 16 15 13 14 15 16 16 15 13 12 13 14
15 15 14 14 15 15 15 15 13 13 13 14 15 16 16 15 16 16 16 17 17 17 17 17 17 17 17 15 16 16 17 17 18 18 18 19 19 19 19 19 19 19 19 19 17 15 13 14 16 17 19 19 15 14 14 16 16 16 16 16 16 16 16 16 16 14 12 13 13
14 14 14 14 15 15 15 14 13 12 13 14 15 15 15 15 16 17 17 17 17 16 15 16 16 16 15 15 16 16 16 17 18 18 18 18 18 18 19 18 19 19 19 18 17 15 15 16 18 19 19 19 16 15 15 16 16 15 15 16 16 16 16 16 16 15 14 14 14
14 14 14 15 15 15 14 14 12 12 13 15 14 14 14 14 15 16 16 16 17 16 15 15 14 14 15 16 16 17 17 17 18 18 18 18 18 18 18 18 18 18 18 17 17 17 17 17 18 19 19 20 18 18 17 16 15 15 15 15 16 16 16 16 16 16 15 15 15
14 14 15 15 15 14 13 14 12 12 13 14 14 14 14 13 14 15 15 16 17 16 15 14 14 14 15 16 17 17 17 17 18 18 18 18 18 18 18 18 19 18 18 17 17 17 18 18 19 19 19 19 19 18 17 16 15 15 14 15 15 15 15 15 16 15 15 15 15
14 14 14 15 15 14 14 13 11 12 13 13 14 14 14 13 13 14 16 17 16 15 14 15 15 15 15 16 16 17 17 17 17 17 17 17 18 19 19 19 19 19 18 18 18 18 18 19 19 19 19 19 18 17 16 15 15 14 14 14 14 14 15 15 15 15 15 15 15
14 14 14 15 15 15 15 14 12 12 13 14 15 14 14 13 13 14 15 16 15 15 16 17 15 15 14 15 15 15 15 15 16 16 16 17 18 18 19 19 19 19 19 18 18 19 19 20 20 19 19 19 17 15 15 14 14 14 14 14 14 14 14 14 15 15 15 15 15
14 14 14 15 15 15 16 15 14 14 14 15 15 14 14 14 14 15 15 16 16 17 17 18 16 15 15 16 15 14 14 14 15 15 16 16 17 18 18 19 19 18 18 18 18 19 20 21 21 20 19 17 15 13 13 13 12 13 13 13 13 13 13 14 14 14 14 14 15
14 14 15 15 15 16 16 16 16 15 15 15 14 14 15 15 16 16 16 16 17 17 18 17 16 16 16 16 16 15 14 14 15 16 16 17 17 17 18 18 18 18 18 17 18 19 20 21 21 20 18 15 12 11 11 11 11 11 12 12 12 12 13 13 13 13 13 14 14
14 15 15 15 15 16 16 16 16 15 15 14 15 15 16 16 17 17 17 17 17 17 17 17 16 16 16 17 17 16 15 13 14 15 16 16 17 17 18 18 18 18 18 17 17 18 19 20 21 20 17 13 10 9 10 10 10 11 11 11 11 12 12 13 13 13 14 14 14
14 15 15 15 15 15 15 15 15 15 15 15 15 16 16 17 17 17 17 17 17 17 17 17 16 17 17 17 17 16 15 13 14 15 15 16 16 17 17 18 17 17 17 17 17 18 19 20 20 18 14 10 8 8 8 9 9 10 10 10 10 11 12 12 12 13 13 13 13
14 14 15 15 15 16 16 16 16 15 15 15 15 16 16 17 17 17 17 17 17 17 17 16 16 17 17 17 17 16 15 14 14 15 15 15 15 16 17 16 17 17 17 17 17 18 19 20 19 16 11 7 6 7 7 8 8 9 10 11 11 11 11 11 11 11 12 12 13
14 14 14 14 15 16 16 16 16 16 16 15 16 16 16 17 17 17 17 17 16 16 16 15 15 16 16 16 16 16 16 15 15 15 15 15 15 16 17 16 16 16 16 15 16 17 18 19 17 12 7 5 5 6 6 7 7 8 9 10 11 11 11 11 11 10 10 11 11
15 15 14 13 15 16 16 16 16 16 16 16 16 16 16 16 17 17 17 17 16 16 16 14 14 15 16 16 16 16 16 16 17 17 16 16 16 17 17 16 15 15 14 14 16 19 21 19 14 9 4 3 4 4 5 6 6 7 8 9 10 10 11 11 11 11 10 11 11
15 15 15 14 15 16 16 16 16 16 16 16 16 16 16 16 16 17 17 17 16 16 16 15 15 15 15 15 15 15 16 16 16 17 17 17 17 17 16 15 13 13 13 14 21 26 29 26 20 11 5 2 3 4 5 6 7 7 8 8 9 10 11 12 12 12 11 11 10
15 15 15 16 16 16 16 16 16 16 16 16 16 16 16 16 16 16 17 17 17 16 16 15 14 14 14 14 15 15 15 15 15 16 17 17 18 18 17 14 12 11 12 17 24 30 33 33 27 16 6 3 4 5 6 6 7 8 8 9 9 10 11 11 12 13 12 11 11
15 15 15 15 16 16 16 16 15 16 16 16 16 16 15 15 15 16 17 17 16 16 15 13 13 13 14 13 15 16 16 15 15 16 16 17 17 18 17 15 12 11 13 20 27 31 34 35 28 16 6 4 5 5 6 6 8 8 8 8 9 10 11 11 12 13 13 12 11
15 15 15 16 16 15 15 15 15 16 16 16 16 15 15 16 16 16 16 16 16 15 14 12 12 11 11 12 14 15 16 16 15 15 15 16 17 18 17 15 13 14 17 24 29 33 35 36 25 14 7 6 5 5 6 6 7 7 7 7 9 10 11 11 10 11 12 12 11
15 15 15 15 15 15 15 15 15 16 16 16 15 15 15 15 16 16 16 17 16 15 13 11 11 10 11 13 14 15 16 16 15 15 15 17 17 17 17 17 15 17 21 27 30 33 35 33 22 15 10 9 7 5 5 5 6 6 7 7 8 9 10 10 10 10 11 11 11
14 14 14 15 15 15 15 15 15 15 15 14 15 15 15 15 15 16 16 16 16 15 14 12 12 12 14 15 15 15 15 15 14 15 16 17 18 18 18 18 16 17 20 27 30 33 34 31 22 17 13 12 9 7 6 6 6 6 7 7 8 10 11 11 11 11 11 10 10
13 14 14 15 15 15 15 15 15 15 15 15 15 15 15 15 15 15 15 16 15 15 15 15 15 15 15 15 15 15 15 15 15 15 16 17 18 18 19 19 18 18 21 27 30 33 33 31 23 19 16 14 10 7 6 7 7 7 7 7 9 10 11 11 11 11 12 11 10
13 14 14 14 15 15 15 15 15 15 15 16 15 15 15 15 15 15 15 15 15 15 16 16 16 16 16 16 16 16 16 16 16 16 16 17 18 19 19 19 18 18 21 28 30 32 33 32 26 22 19 16 11 9 8 8 8 8 8 8 10 11 11 11 10 11 12 12 10
14 14 14 14 15 15 15 15 15 15 16 16 15 15 15 15 14 14 14 14 14 15 15 16 16 16 16 16 16 16 16 16 16 17 18 18 19 19 19 18 16 17 22 28 30 31 32 32 29 25 22 18 12 10 9 9 8 8 8 9 10 11 12 12 11 11 12 11 9
14 14 14 14 15 15 15 15 15 16 16 16 15 15 15 15 15 14 14 13 13 14 14 14 15 15 15 15 15 16 16 15 16 16 17 18 18 19 19 17 14 17 23 29 30 31 31 32 31 28 24 19 13 10 10 10 9 8 9 9 10 11 11 12 12 12 11 10 8
14 15 15 15 15 15 15 15 16 16 16 16 16 15 15 15 14 14 14 14 14 14 13 14 14 14 14 15 15 15 16 16 16 16 17 17 18 18 19 18 17 20 25 29 30 30 31 31 31 29 26 19 13 11 10 10 9 10 10 10 11 11 11 11 11 11 10 9 8
15 15 16 16 16 16 16 16 16 16 16 16 16 16 15 15 14 14 14 14 14 14 14 14 14 14 14 15 15 15 15 16 16 16 16 17 17 18 18 18 19 22 25 28 29 30 30 31 31 29 25 18 13 11 10 9 9 9 10 10 10 11 11 11 11 11 10 8 8
16 16 16 16 16 16 16 16 16 16 16 16 16 16 16 15 15 14 13 13 14 14 14 14 14 14 15 15 15 15 15 15 15 16 16 16 16 17 17 18 18 20 23 27 29 29 30 30 31 29 25 17 14 12 10 9 8 8 9 10 10 10 10 9 10 10 10 9 9
16 16 16 16 16 16 16 16 16 17 17 16 16 16 15 15 14 14 13 13 13 14 14 14 14 14 14 15 15 15 16 15 15 15 15 16 16 16 17 17 17 18 20 24 27 28 29 29 30 29 25 17 15 13 10 8 8 8 8 8 8 9 9 8 8 9 10 11 14
17 17 17 17 17 17 17 16 17 17 17 16 16 16 15 14 13 13 13 13 13 14 14 14 14 14 14 15 15 15 15 15 15 15 15 15 15 16 16 16 16 16 18 22 25 27 27 28 28 29 26 19 16 13 10 8 8 8 8 8 8 8 8 8 8 8 10 13 17
17 17 17 17 17 17 17 17 17 16 16 15 16 15 15 14 14 13 13 13 13 13 13 13 14 14 14 15 14 14 15 15 15 15 14 14 15 16 16 15 15 16 18 21 23 25 26 27 27 28 25 18 16 13 10 8 8 8 9 8 8 7 7 7 8 8 9 11 14
16 16 17 17 17 17 17 17 17 16 16 15 15 15 14 14 14 13 13 13 13 13 13 12 14 15 15 14 13 13 14 15 15 15 14 15 14 14 14 14 15 15 16 18 21 23 24 25 26 27 25 18 16 13 10 8 8 9 10 9 8 8 7 7 7 7 8 9 10
Wind_Direction
338 338 336 334 332 330 328 325 326 327 327 326 323 320 318 317 318 319 321 322 320 318 316 315 314 314 315 316 315 315 315 316 316 316 315 313 311 312 315 319 318 317 317 317 318 319 319 318 316 312 308 305 305 305 307 308 310 311 312 313 309 304 298 290 282 275 269 265 264
336 336 334 332 331 329 326 325 327 329 328 325 321 319 318 318 320 321 321 321 319 317 315 314 315 315 315 315 315 315 315 315 315 315 314 313 311 313 316 319 318 317 317 318 320 320 320 320 317 313 307 304 304 306 307 309 310 311 312 313 311 307 303 297 290 282 275 269 265
335 335 334 333 333 332 331 329 330 330 328 324 321 319 319 321 322 322 322 321 319 318 316 316 316 316 315 315 316 316 316 315 315 315 314 313 313 315 317 318 317 317 317 319 320 321 321 321 317 312 307 304 305 306 307 308 310 311 311 312 309 307 304 301 298 292 284 274 265
335 335 334 334 334 334 333 331 331 330 328 324 321 320 321 324 325 324 323 321 319 318 318 318 317 316 316 316 318 317 316 315 314 314 314 314 315 317 317 317 317 317 318 319 320 321 321 321 317 311 307 304 303 304 306 309 311 311 310 310 308 306 304 303 302 300 295 285 271
335 335 335 334 335 334 333 332 332 330 327 323 322 323 325 326 326 325 323 322 321 320 319 319 317 317 317 318 318 317 316 314 314 315 316 316 317 318 318 317 317 317 319 321 322 322 321 321 316 311 307 304 303 304 306 309 310 310 309 308 308 307 305 304 305 306 305 302 296
335 335 335 334 334 334 334 334 332 330 327 323 323 325 327 328 327 325 323 321 320 319 319 318 318 318 319 320 319 317 316 315 315 316 317 318 318 318 318 316 317 318 320 322 323 322 321 321 316 311 307 304 302 303 306 310 310 310 309 308 308 308 308 308 307 307 308 308 308
334 335 335 335 335 335 335 335 332 329 326 323 324 327 328 328 326 324 323 321 320 321 321 320 321 321 321 320 319 318 317 317 316 317 318 319 318 318 317 317 318 320 322 324 324 323 321 319 314 310 307 305 304 306 309 312 312 311 310 308 309 310 312 311 309 307 306 306 306
334 335 335 335 335 335 335 334 330 328 326 324 326 327 328 327 325 324 323 322 322 322 322 321 321 321 320 319 318 318 318 317 317 318 319 319 318 318 318 318 319 322 324 325 325 323 321 317 312 309 307 307 306 307 309 311 311 311 309 308 308 311 313 312 311 310 309 308 307
335 335 336 335 336 335 334 331 329 327 325 324 325 327 327 326 325 325 324 324 323 323 322 321 322 321 320 319 318 318 318 318 318 318 319 319 318 318 318 319 321 323 325 326 324 322 320 316 312 310 309 308 308 308 308 309 310 310 309 307 308 310 313 313 314 314 312 311 309
336 336 336 336 336 334 332 330 328 326 325 324 326 327 327 327 326 325 325 324 323 322 322 322 322 321 320 319 319 319 319 318 318 318 318 317 317 318 319 320 322 323 324 324 323 321 318 315 313 312 312 310 309 307 306 307 308 310 310 308 308 310 313 315 317 317 316 315 313
336 336 336 336 334 332 330 329 328 326 326 326 328 328 328 327 326 325 324 323 323 323 323 323 322 321 320 319 319 318 318 318 317 317 317 316 317 318 319 320 322 322 322 322 321 319 317 316 314 314 313 312 310 308 306 307 309 310 310 308 309 310 313 316 318 319 319 318 316
336 336 335 334 333 331 330 330 328 327 327 327 328 329 328 327 325 324 324 324 324 324 324 324 322 321 319 318 318 318 317 317 316 316 315 316 317 318 319 320 321 321 321 320 320 319 317 316 315 315 315 315 312 309 307 308 310 311 311 310 311 312 314 317 319 320 320 320 319
336 335 335 334 333 332 331 331 328 327 327 328 329 329 328 326 324 324 324 325 326 325 324 323 322 320 319 318 317 317 316 316 316 315 315 316 317 319 320 320 320 320 319 319 319 318 317 316 316 316 316 316 313 310 309 310 312 313 313 312 313 314 315 317 319 319 320 321 321
335 335 334 333 333 332 332 331 329 328 328 329 329 328 327 325 324 324 325 327 326 325 324 322 321 320 318 317 316 316 316 315 315 315 316 317 319 320 320 319 319 319 318 318 319 318 318 316 317 317 316 314 312 310 310 312 314 314 313 313 313 315 316 318 319 320 321 322 323
335 335 334 334 334 333 333 332 330 329 329 329 329 327 326 324 324 324 325 327 326 325 324 323 321 319 317 316 316 316 316 315 316 316 318 319 320 320 320 319 318 318 318 318 319 319 318 317 316 316 314 311 309 310 312 315 316 315 314 313 314 315 317 318 320 321 322 323 324
335 335 334 334 334 334 333 333 331 330 329 329 328 326 325 324 323 324 326 327 326 325 324 323 321 319 317 317 318 317 317 316 317 318 320 320 321 321 320 319 318 318 318 319 320 319 319 318 316 314 312 308 306 308 313 317 316 315 315 315 315 316 318 319 321 323 324 324 325
334 334 334 334 334 333 333 333 331 330 329 328 327 326 325 323 323 324 326 327 326 325 324 323 321 319 318 318 319 318 317 317 319 320 321 321 320 320 319 319 318 318 318 320 320 319 318 317 315 312 309 303 304 308 315 319 317 317 316 317 317 318 319 321 323 324 325 326 327
334 334 333 333 333 332 332 331 330 329 328 327 326 325 324 323 323 324 326 327 326 325 323 322 321 320 319 319 319 319 318 319 320 320 321 320 319 319 318 318 317 318 318 320 319 318 316 314 313 310 306 300 303 310 318 320 318 318 318 318 319 320 321 323 325 326 327 328 329
333 333 332 332 332 331 331 330 329 329 327 326 325 324 323 323 324 325 326 327 326 324 323 322 322 321 321 320 320 320 320 320 321 321 320 319 319 319 318 318 318 318 319 319 318 316 314 311 310 306 303 299 307 315 321 321 319 319 319 319 320 322 323 324 326 327 329 330 331
332 332 331 331 330 330 329 329 328 328 327 326 325 324 324 324 326 327 327 327 325 324 323 322 322 322 322 322 322 322 322 322 322 322 321 320 320 320 319 319 319 318 318 318 316 314 310 308 306 303 301 301 313 321 323 321 320 321 322 322 323 323 324 325 326 328 329 331 333
331 330 330 329 329 328 328 328 328 327 326 326 325 324 325 327 328 329 328 326 325 324 324 324 323 323 323 323 323 323 324 323 323 322 321 321 320 320 320 319 319 319 319 318 315 311 308 305 303 302 301 306 318 323 323 321 323 326 328 328 326 325 324 324 325 327 329 331 333
330 329 328 328 327 327 327 327 327 327 327 326 325 325 327 330 330 329 327 326 325 325 325 325 325 324 323 323 324 324 325 324 324 323 323 322 321 321 320 320 320 320 319 318 314 310 307 304 303 301 301 308 318 320 319 320 326 330 332 331 329 327 325 324 324 325 326 329 332
329 328 328 327 327 327 326 326 326 327 327 326 326 327 329 331 330 329 328 327 326 326 326 326 325 324 324 323 324 324 325 325 325 325 325 324 323 323 322 322 322 321 320 317 314 310 308 306 306 304 299 301 308 310 312 315 325 331 332 331 330 329 327 326 324 324 325 328 332
328 328 328 327 327 327 326 326 326 326 327 326 327 328 330 331 330 329 328 327 326 326 327 326 325 324 323 323 324 325 326 327 327 327 327 327 326 326 326 325 324 323 320 316 315 314 314 314 317 316 305 293 301 307 312 318 329 333 332 330 331 332 332 331 327 326 326 329 332
328 328 328 327 327 326 326 325 326 326 326 326 327 328 330 331 330 329 328 327 326 326 326 325 325 324 324 324 326 327 328 328 328 328 328 329 329 329 329 328 326 324 321 316 316 316 317 320 326 330 330 317 324 326 328 332 337 337 335 334 336 339 339 337 333 330 329 330 333
327 327 327 327 327 326 326 325 325 325 325 325 327 328 330 331 330 329 328 327 326 325 325 325 325 325 326 326 328 329 330 330 330 329 330 331 332 332 332 330 328 324 319 316 318 319 320 322 328 332 338 341 341 340 339 340 340 339 338 339 343 345 345 342 338 335 333 332 335
325 326 326 326 326 325 325 324 323 324 324 325 327 328 329 331 330 329 328 327 326 324 324 324 325 326 327 327 329 330 331 331 331 331 331 332 333 333 333 331 329 324 320 319 321 321 323 327 334 340 352 359 349 345 343 341 340 338 339 343 348 350 350 347 341 337 335 336 338
324 324 324 325 325 324 324 324 324 324 325 325 327 328 329 330 330 330 329 327 326 325 324 326 327 328 327 327 329 330 331 332 332 332 333 334 334 334 333 332 331 326 323 323 324 326 330 338 348 360 16 10 355 347 343 340 338 337 340 347 352 353 352 350 344 339 338 340 344
321 322 323 323 323 323 324 324 324 324 324 325 325 327 328 329 330 330 329 328 327 327 327 328 329 329 328 327 327 328 330 333 333 333 333 335 335 335 334 333 332 329 327 327 328 332 339 351 5 15 18 9 358 349 344 342 339 339 343 351 356 356 354 353 348 343 342 345 352
319 320 320 321 321 322 323 323 324 324 324 324 325 326 327 329 330 331 331 330 328 327 327 328 328 327 327 326 326 328 330 333 333 333 334 335 336 335 334 334 334 332 330 331 331 338 348 2 13 16 10 4 358 352 347 345 342 342 345 353 359 359 357 355 352 347 346 350 360
318 318 318 319 319 320 321 322 322 323 323 323 324 325 327 329 331 332 332 331 328 327 326 326 327 326 326 326 326 327 329 331 333 334 335 336 336 335 334 335 336 334 333 334 335 343 353 7 13 12 5 359 356 354 351 349 345 345 348 356 2 3 1 357 354 350 348 350 2
317 317 317 317 318 318 319 320 321 322 322 322 323 324 326 328 330 331 332 330 328 327 327 327 327 327 326 327 327 328 329 331 332 334 336 337 336 335 335 336 337 336 336 338 339 345 354 6 11 11 6 358 355 354 354 351 348 348 352 359 6 7 4 358 353 349 347 346 1
316 316 316 316 316 317 318 319 320 320 321 321 322 323 325 327 329 330 331 331 330 329 328 327 327 326 326 327 327 328 329 329 332 335 337 337 336 335 335 337 337 337 339 340 342 346 353 3 10 12 8 1 356 354 355 354 351 351 355 1 9 9 5 357 353 349 345 341 359
316 316 315 315 315 316 316 318 318 319 320 320 320 321 323 325 328 329 330 332 331 329 328 326 325 325 324 326 326 327 328 329 331 335 337 338 336 335 336 338 337 339 341 342 344 347 352 360 7 10 10 3 358 355 355 354 353 354 358 4 10 9 4 355 351 348 344 340 1
317 316 315 315 315 315 316 317 318 318 319 319 319 320 322 324 326 327 329 330 330 329 327 325 324 323 324 325 326 326 327 328 330 334 337 338 336 336 336 337 337 340 342 344 345 348 352 357 4 7 8 4 359 355 354 354 353 355 360 5 10 9 2 352 349 347 345 344 10
317 317 316 315 314 315 315 316 317 318 318 318 319 320 321 323 324 326 327 329 329 329 327 326 324 324 325 326 326 326 326 327 329 333 337 338 337 336 336 337 338 340 342 344 346 349 352 356 0 4 6 4 358 354 353 353 354 357 0 4 9 7 0 350 348 348 349 352 18
318 317 316 315 314 315 315 316 317 317 318 318 318 319 321 322 323 324 326 328 328 328 327 326 325 325 326 326 325 324 324 325 328 333 337 338 336 336 337 338 339 340 342 344 346 349 352 356 358 1 3 3 357 353 351 352 355 357 0 3 5 3 358 350 349 351 356 4 28
318 317 316 315 315 315 316 316 317 317 317 317 318 319 321 322 322 323 324 326 326 326 326 325 325 325 324 324 322 322 322 323 328 332 336 337 336 336 336 338 339 340 342 344 345 348 352 356 357 360 1 360 356 352 350 349 353 357 360 2 1 360 357 354 353 357 5 17 35
318 317 316 315 315 315 316 316 317 317 317 317 318 320 321 322 321 322 323 323 324 324 324 323 324 323 323 322 321 321 322 323 327 332 336 337 335 335 336 337 338 340 342 344 345 347 351 355 357 359 0 358 355 352 349 347 351 356 359 1 358 357 357 358 360 4 12 21 34
318 317 317 316 316 316 317 317 317 317 317 317 319 320 321 321 320 320 320 320 321 321 321 321 322 322 322 321 320 321 322 324 327 331 335 336 335 335 336 337 338 340 343 345 345 348 351 355 357 359 0 358 355 352 349 349 352 356 358 359 355 354 355 1 4 8 13 19 30
318 317 317 317 317 317 318 318 317 318 317 318 319 319 319 319 318 318 319 318 319 320 320 320 321 321 321 321 320 321 322 324 326 330 333 335 335 336 337 337 338 340 343 345 346 348 351 355 356 358 0 1 356 353 352 356 359 359 358 355 352 350 352 359 4 7 11 16 28